{"data":{"norad_id":39634,"intl_designator":"2014-016A","name":"SENTINEL-1A","alt_names":[],"object_type":"PAYLOAD","status":"ACTIVE","operator":null,"country":"ESA","launch_date":"2014-04-03","launch_site_code":"FRGUI","launch_vehicle":null,"mission":null,"orbit_class":"UNKNOWN","rcs_meters":4.9676,"size_class":null,"mass_kg":null,"dimensions":null,"purposes":["earth_obs"],"wikipedia_slug":null,"has_3d_model":false,"image_url":null,"decayed_at":null,"tle_current":{"epoch":"2026-09-20T04:27:48.612384Z","epoch_age_seconds":41467,"freshness":"FRESH","line1":"1 39634U 14016A   26263.18597931  .00000070  00000+0  24140-4 0  9990","line2":"2 39634  98.1601 269.2310 0001466  83.2885 276.8482 14.59806332663874","mean_motion":14.59806332,"eccentricity":0.0001466,"inclination_deg":98.1601,"raan_deg":269.231,"arg_perigee_deg":83.2885,"mean_anomaly_deg":276.8482,"bstar":2.414e-5,"rev_number":66387,"period_min":98.643221942128,"perigee_km":692.76264825724,"apogee_km":694.836140008,"semimajor_km":7071.9363941326,"source":"CELESTRAK","updated_at":"2026-09-20T09:00:33.896048Z"}}}